{"data":{"norad_id":66609,"epoch":"2026-05-24T22:40:08.032224Z","epoch_age_seconds":86782,"freshness":"FRESH","line1":"1 66609U 25270X   26144.94453741  .00015642  00000+0  57660-3 0  9991","line2":"2 66609  43.0006 345.9081 0000219 173.8160 186.2695 15.27587677 29205","mean_motion":15.27587677,"eccentricity":2.19e-5,"inclination_deg":43.0006,"raan_deg":345.9081,"arg_perigee_deg":173.816,"mean_anomaly_deg":186.2695,"bstar":0.0005766,"rev_number":2920,"period_min":94.266274969433,"perigee_km":482.87584896406,"apogee_km":483.17636790821,"semimajor_km":6861.1631084361,"source":"CELESTRAK","updated_at":"2026-05-25T13:38:21.291825Z"}}